WB2IFS-13 Weather Reports


time (UTC)temp
C
wind
direction
speed
KPH
gust
KPH
rain 1hr
cm
rain 24hr
cm
rain mn
cm
humidity
%
barometer
mb
20260505024500 18 146 0.0 4.8 0.00 0.00 0.00 54 1012.0
20260505022959 18 145 1.6 6.4 0.00 0.00 0.00 55 1012.0
20260505021500 17 174 0.0 6.4 0.00 0.00 0.00 56 1012.0
20260505020001 18 127 0.0 1.6 0.00 0.00 0.00 55 1012.1
20260505014500 18 131 0.0 3.2 0.00 0.00 0.00 54 1011.9
20260505012959 18 115 0.0 1.6 0.00 0.00 0.00 54 1011.8
20260505011500 18 151 0.0 0.0 0.00 0.00 0.00 53 1011.8
20260505010002 19 175 0.0 3.2 0.00 0.00 0.00 51 1011.6
20260505004459 20 117 0.0 1.6 0.00 0.00 0.00 49 1011.4
20260505002959 20 123 0.0 3.2 0.00 0.00 0.00 47 1011.3
20260505001459 21 129 0.0 3.2 0.00 0.00 0.00 46 1011.4
20260505000002 21 146 1.6 4.8 0.00 0.00 0.00 44 1011.4
20260504234501 22 163 3.2 8.0 0.00 0.00 0.00 42 1011.1
20260504233001 22 195 1.6 6.4 0.00 0.00 0.00 42 1011.1
20260504231500 22 93 3.2 16.1 0.00 0.00 0.00 41 1011.0
20260504230002 23 72 4.8 16.1 0.00 0.00 0.00 40 1011.1
20260504223000 23 124 4.8 17.7 0.00 0.00 0.00 39 1011.1
20260504221459 23 359 4.8 16.1 0.00 0.00 0.00 37 1011.1
20260504215959 24 122 6.4 16.1 0.00 0.00 0.00 36 1011.1
20260504212959 25 124 3.2 9.7 0.00 0.00 0.00 34 1011.1
20260504211459 25 190 3.2 9.7 0.00 0.00 0.00 34 1011.2
20260504210001 25 111 4.8 9.7 0.00 0.00 0.00 32 1011.2
20260504204504 25 48 4.8 9.7 0.00 0.00 0.00 33 1011.1
20260504203000 25 131 4.8 12.9 0.00 0.00 0.00 33 1011.2
20260504201500 25 207 4.8 14.5 0.00 0.00 0.00 34 1011.3
20260504200001 25 71 4.8 11.3 0.00 0.00 0.00 34 1011.5
20260504194500 25 186 4.8 14.5 0.00 0.00 0.00 34 1011.6
20260504192959 25 177 4.8 14.5 0.00 0.00 0.00 34 1011.9
20260504191459 25 341 3.2 14.5 0.00 0.00 0.00 33 1012.1
20260504190002 25 180 3.2 8.0 0.00 0.00 0.00 35 1012.2
20260504184501 24 346 4.8 12.9 0.00 0.00 0.00 34 1012.5
20260504183000 23 358 4.8 11.3 0.00 0.00 0.00 36 1012.7
20260504181500 23 14 4.8 11.3 0.00 0.00 0.00 36 1013.1
20260504180001 23 132 3.2 11.3 0.00 0.00 0.00 37 1013.4
20260504174459 23 200 3.2 11.3 0.00 0.00 0.00 37 1013.4
20260504173000 23 95 4.8 14.5 0.00 0.00 0.00 37 1013.8
20260504171458 23 14 3.2 9.7 0.00 0.00 0.00 36 1013.8
20260504081459 10 168 0.0 3.2 0.00 0.00 0.00 70 1016.4
20260504050001 7 191 0.0 0.0 0.00 0.00 0.00 73 1016.5
20260504044500 7 191 0.0 0.0 0.00 0.00 0.00 72 1016.4
20260504043000 7 191 0.0 0.0 0.00 0.00 0.00 72 1016.5
20260504041459 7 191 0.0 0.0 0.00 0.00 0.00 71 1016.6
20260504040003 7 191 0.0 0.0 0.00 0.00 0.00 69 1016.7
20260504034459 7 191 0.0 0.0 0.00 0.00 0.00 68 1016.6
20260504033000 7 191 0.0 0.0 0.00 0.00 0.00 67 1016.5
20260504031459 8 191 0.0 0.0 0.00 0.00 0.00 67 1016.4
20260504030002 8 191 0.0 0.0 0.00 0.00 0.00 67 1016.4